Location: �clusier
(49.9361°N, 2.7869°E)
Time: 13:59:33
(UTC+00:00)

NOAA 13 - Pass Details

Date: 29 January 2022
Orbit: 842 x 857 km, 98.5° (Epoch: 17 May)

Event Time Altitude Azimuth Distance (km) Brightness Sun altitude
Rises 03:55:53 0° 21° (NNE) 3,426 8.3 -33.8°
Reaches altitude 10° 03:58:29 10° 30° (NNE) 2,488 7.6 -33.4°
Maximum altitude 04:03:29 34° 95° (E) 1,370 6.2 -32.6°
Drops below altitude 10° 04:08:28 10° 160° (SSE) 2,480 7.2 -31.8°
Sets 04:11:03 0° 169° (S) 3,414 7.9 -31.4°
